Flag for Canada Weather past 2 weeks in Alert, Nunavut, Canada

Now
37 °F

Partly sunny.


Feels Like: 32 °F
Forecast: 38 / 40 °F
Wind: 7 mph from North

Location: Alert Airport

Current Time: Jul 7, 2015 at 12:19:16 PM

Latest Report: Jul 7, 2015 at 12:00 PM


Visibility: 15 mi

Pressure: 30.34 "Hg

Humidity: 93%

Dew point: 36 °F

Location of AlertLocation

Historic Weather in Alert — Graph

°F

Alert temperature yesterday

Maximum temperature yesterday: 48 °F (at 11:00 AM)
Minimum temperature yesterday: 39 °F (at 5:00 PM)
Average temperature yesterday: 44 °F

Past Weeks' High & Low Weather Summary

 TemperatureHumidityPressure
High59 °F (Jun 29, 11:00 AM)100% (Jun 26, 8:00 AM)30.35 "Hg (Jun 26, 8:00 AM)
Low28 °F (Jun 28, 8:00 PM)48% (Jun 29, 10:00 AM)29.72 "Hg (Jun 25, 6:00 AM)
Average41 °F81%30.00 "Hg
* Reported Jun 22 11:00 AM — Jul 7 11:00 AM, Alert, Weather by CustomWeather, © 2015

Note: Actual official high and low records may vary slightly from our data, if they occured in-between our weather recording intervals... More about our weather records

Advertising

Alert weather history for previous 24 hours

 ConditionsComfort  
Time TempWeatherWind HumidityBarometerVisibility
11:00 AM
Tue, Jul 7
36 °FPartly sunny.5 mph93%30.34 "Hg15 mi
10:00 AM36 °FBroken clouds.5 mph93%30.34 "Hg15 mi
9:00 AM36 °FBroken clouds.3 mph93%30.35 "Hg15 mi
8:00 AM36 °FPartly sunny.6 mph93%30.35 "Hg15 mi
7:00 AM36 °FPartly sunny.8 mph93%30.35 "Hg15 mi
6:00 AM37 °FPartly sunny.6 mph93%30.34 "Hg15 mi
5:00 AM36 °FBroken clouds.5 mph93%30.35 "Hg15 mi
4:00 AM36 °FPartly sunny.2 mph93%30.34 "Hg15 mi
3:00 AM36 °FPartly sunny.6 mph93%30.34 "Hg15 mi
2:00 AM34 °FPartly sunny.8 mph100%30.34 "Hg15 mi
1:00 AM37 °FPartly sunny.3 mph87%30.33 "Hg15 mi
5:00 PM
Mon, Jul 6
39 °FPartly sunny.6 mph87%30.33 "Hg15 mi
4:00 PM43 °FPartly sunny.5 mph81%30.32 "Hg15 mi
3:00 PM43 °FPartly sunny.3 mph81%30.32 "Hg15 mi
2:00 PM46 °FPartly sunny.5 mph71%30.32 "Hg15 mi
1:00 PM45 °FPartly sunny.10 mph76%30.32 "Hg15 mi
12:00 PM46 °FPartly sunny.9 mph71%30.32 "Hg15 mi
Weather by CustomWeather, © 2015

See weather overviewHow to use our weather pages